Location: Unspecified
(0.0000°N, 0.0000°E)
Time: 19:06:21
(UTC+00:00)

MetOp-A - Pass Details

Date: 10 August 2021
Orbit: 819 x 821 km, 98.5° (Epoch: 26 September)

Event Time Altitude Azimuth Distance (km) Brightness Sun altitude
Exits shadow 19:08:54 21° 87° (E) 1,754 5.3 -15.3°
Maximum altitude 19:09:31 22° 77° (ENE) 1,735 5.3 -15.5°
Drops below altitude 10° 19:13:30 10° 29° (NNE) 2,408 6.4 -16.4°
Sets 19:16:20 0° 14° (NNE) 3,337 7.3 -17.1°
